Stündliche Wetter Holyapino

Heute, 25 Juni, Freitag

Zeit Temperatur Niederschläge Wind Luftdruck Luftfeuchtigkeit
00:00 +20°C° 0 mm 2 m/S 748 mmHg 82%
01:00 +21°C° 0 mm 1 m/S 748 mmHg 80%
02:00 +21°C° 0 mm 1 m/S 747 mmHg 79%
03:00 +22°C° 0 mm 1 m/S 747 mmHg 80%
04:00 +22°C° 0 mm 1 m/S 748 mmHg 81%
05:00 +22°C° 0 mm 1 m/S 748 mmHg 82%
06:00 +24°C° 0 mm 1 m/S 747 mmHg 76%
07:00 +25°C° 0 mm 1 m/S 747 mmHg 70%
08:00 +25°C° 0 mm 0 m/S 747 mmHg 64%
09:00 +28°C° 0 mm 1 m/S 747 mmHg 61%
10:00 +29°C° 0 mm 1 m/S 747 mmHg 58%
11:00 +30°C° 0 mm 2 m/S 747 mmHg 55%
12:00 +31°C° 0 mm 2 m/S 747 mmHg 54%
13:00 +31°C° 0 mm 2 m/S 747 mmHg 54%
14:00 +32°C° 0 mm 2 m/S 747 mmHg 53%
15:00 +31°C° 0.2 mm 2 m/S 746 mmHg 58%
16:00 +31°C° 0.2 mm 2 m/S 746 mmHg 63%
17:00 +30°C° 0.2 mm 2 m/S 745 mmHg 67%
18:00 +28°C° 0.7 mm 2 m/S 745 mmHg 75%
19:00 +25°C° 0.7 mm 2 m/S 745 mmHg 82%
20:00 +22°C° 0.7 mm 1 m/S 745 mmHg 89%
21:00 +22°C° 0.3 mm 1 m/S 745 mmHg 89%
22:00 +22°C° 0.3 mm 1 m/S 745 mmHg 89%
23:00 +21°C° 0.3 mm 1 m/S 745 mmHg 88%

Morgen, 26 Juni, Samstag

Zeit Temperatur Niederschläge Wind Luftdruck Luftfeuchtigkeit
00:00 +21°C° 0 mm 1 m/S 745 mmHg 89%
01:00 +21°C° 0 mm 1 m/S 745 mmHg 90%
02:00 +21°C° 0 mm 1 m/S 745 mmHg 91%
03:00 +21°C° 0 mm 1 m/S 745 mmHg 89%
04:00 +22°C° 0 mm 1 m/S 745 mmHg 88%
05:00 +23°C° 0 mm 1 m/S 745 mmHg 86%
06:00 +24°C° 0 mm 1 m/S 745 mmHg 81%
07:00 +26°C° 0 mm 1 m/S 745 mmHg 77%
08:00 +27°C° 0 mm 2 m/S 745 mmHg 72%
09:00 +29°C° 0.1 mm 2 m/S 745 mmHg 68%
10:00 +30°C° 0.1 mm 2 m/S 745 mmHg 64%
11:00 +31°C° 0.1 mm 2 m/S 745 mmHg 60%
12:00 +31°C° 0.1 mm 2 m/S 745 mmHg 58%
13:00 +32°C° 0.1 mm 2 m/S 745 mmHg 56%
14:00 +32°C° 0.1 mm 1 m/S 745 mmHg 54%
15:00 +32°C° 0 mm 1 m/S 744 mmHg 57%
16:00 +32°C° 0 mm 1 m/S 744 mmHg 60%
17:00 +32°C° 0 mm 1 m/S 744 mmHg 63%
18:00 +30°C° 0.2 mm 1 m/S 744 mmHg 68%
19:00 +28°C° 0.2 mm 1 m/S 744 mmHg 73%
20:00 +26°C° 0.2 mm 1 m/S 744 mmHg 78%
21:00 +24°C° 0.9 mm 1 m/S 744 mmHg 81%
22:00 +23°C° 0.9 mm 2 m/S 744 mmHg 84%
23:00 +20°C° 0.9 mm 2 m/S 744 mmHg 87%

übermorgen, 27 Juni, Sonntag

Zeit Temperatur Niederschläge Wind Luftdruck Luftfeuchtigkeit
00:00 +20°C° 0.2 mm 2 m/S 744 mmHg 87%
01:00 +19°C° 0.2 mm 2 m/S 744 mmHg 86%
02:00 +20°C° 0.2 mm 1 m/S 744 mmHg 85%
03:00 +21°C° 0.2 mm 1 m/S 744 mmHg 85%
04:00 +21°C° 0.2 mm 1 m/S 744 mmHg 85%
05:00 +22°C° 0.2 mm 1 m/S 744 mmHg 84%
06:00 +24°C° 0 mm 1 m/S 744 mmHg 80%
07:00 +25°C° 0 mm 1 m/S 744 mmHg 76%
08:00 +25°C° 0 mm 0 m/S 744 mmHg 71%
09:00 +28°C° 0.1 mm 1 m/S 744 mmHg 68%
10:00 +30°C° 0.1 mm 1 m/S 744 mmHg 65%
11:00 +31°C° 0.1 mm 1 m/S 744 mmHg 61%
12:00 +31°C° 0.2 mm 1 m/S 744 mmHg 58%
13:00 +32°C° 0.2 mm 1 m/S 744 mmHg 55%
14:00 +32°C° 0.2 mm 1 m/S 743 mmHg 52%
15:00 +32°C° 0 mm 1 m/S 743 mmHg 56%
16:00 +31°C° 0 mm 1 m/S 743 mmHg 61%
17:00 +31°C° 0 mm 1 m/S 742 mmHg 65%
18:00 +29°C° 0.9 mm 2 m/S 742 mmHg 73%
19:00 +26°C° 0.9 mm 3 m/S 742 mmHg 81%
20:00 +24°C° 0.9 mm 3 m/S 742 mmHg 89%
21:00 +22°C° 6.7 mm 3 m/S 742 mmHg 91%
22:00 +20°C° 6.7 mm 2 m/S 742 mmHg 94%
23:00 +19°C° 6.7 mm 2 m/S 742 mmHg 96%

28 Juni, Montag

Zeit Temperatur Niederschläge Wind Luftdruck Luftfeuchtigkeit
00:00 +19°C° 0.1 mm 2 m/S 742 mmHg 96%
01:00 +19°C° 0.1 mm 2 m/S 742 mmHg 96%
02:00 +19°C° 0.1 mm 2 m/S 742 mmHg 97%
03:00 +19°C° 0 mm 2 m/S 742 mmHg 96%
04:00 +20°C° 0 mm 2 m/S 742 mmHg 96%
05:00 +20°C° 0 mm 2 m/S 741 mmHg 95%
06:00 +21°C° 0.1 mm 2 m/S 742 mmHg 92%
07:00 +22°C° 0.1 mm 3 m/S 742 mmHg 88%
08:00 +24°C° 0.1 mm 3 m/S 742 mmHg 85%
09:00 +25°C° 0 mm 3 m/S 742 mmHg 81%
10:00 +26°C° 0 mm 3 m/S 742 mmHg 77%
11:00 +27°C° 0 mm 3 m/S 742 mmHg 73%
12:00 +27°C° 0.6 mm 3 m/S 742 mmHg 75%
13:00 +27°C° 0.6 mm 3 m/S 741 mmHg 78%
14:00 +27°C° 0.6 mm 3 m/S 741 mmHg 81%
15:00 +26°C° 4.7 mm 3 m/S 741 mmHg 84%
16:00 +25°C° 4.7 mm 3 m/S 740 mmHg 88%
17:00 +24°C° 4.7 mm 3 m/S 739 mmHg 92%
18:00 +22°C° 3.7 mm 3 m/S 739 mmHg 93%
19:00 +22°C° 3.7 mm 4 m/S 739 mmHg 94%
20:00 +21°C° 3.7 mm 4 m/S 739 mmHg 96%
21:00 +21°C° 0.6 mm 4 m/S 739 mmHg 96%
22:00 +21°C° 0.6 mm 4 m/S 739 mmHg 97%
23:00 +20°C° 0.6 mm 4 m/S 739 mmHg 97%

29 Juni, Dienstag

Zeit Temperatur Niederschläge Wind Luftdruck Luftfeuchtigkeit
00:00 +20°C° 0.4 mm 4 m/S 738 mmHg 97%
01:00 +20°C° 0.4 mm 4 m/S 738 mmHg 97%
02:00 +19°C° 0.4 mm 3 m/S 737 mmHg 97%
03:00 +20°C° 0.4 mm 3 m/S 737 mmHg 97%
04:00 +20°C° 0.4 mm 3 m/S 737 mmHg 97%
05:00 +20°C° 0.4 mm 2 m/S 737 mmHg 97%
06:00 +21°C° 0.4 mm 3 m/S 737 mmHg 96%
07:00 +21°C° 0.4 mm 3 m/S 737 mmHg 95%
08:00 +21°C° 0.4 mm 3 m/S 737 mmHg 93%
09:00 +22°C° 0.2 mm 4 m/S 737 mmHg 89%
10:00 +23°C° 0.2 mm 4 m/S 737 mmHg 85%
11:00 +25°C° 0.2 mm 5 m/S 737 mmHg 81%
12:00 +25°C° 0.6 mm 5 m/S 737 mmHg 82%
13:00 +25°C° 0.6 mm 5 m/S 737 mmHg 83%
14:00 +23°C° 0.6 mm 5 m/S 736 mmHg 84%
15:00 +23°C° 0.3 mm 4 m/S 736 mmHg 85%
16:00 +23°C° 0.3 mm 4 m/S 736 mmHg 85%
17:00 +24°C° 0.3 mm 3 m/S 736 mmHg 86%
18:00 +21°C° 0.1 mm 3 m/S 736 mmHg 90%
19:00 +20°C° 0.1 mm 3 m/S 736 mmHg 93%
20:00 +18°C° 0.1 mm 2 m/S 736 mmHg 97%
21:00 +18°C° 0 mm 3 m/S 736 mmHg 97%
22:00 +17°C° 0 mm 3 m/S 736 mmHg 97%
23:00 +17°C° 0 mm 3 m/S 736 mmHg 97%

30 Juni, Mittwoch

Zeit Temperatur Niederschläge Wind Luftdruck Luftfeuchtigkeit
00:00 +17°C° 0 mm 3 m/S 736 mmHg 96%
01:00 +17°C° 0 mm 3 m/S 736 mmHg 96%
02:00 +17°C° 0 mm 2 m/S 736 mmHg 96%
03:00 +16°C° 0 mm 3 m/S 736 mmHg 96%
04:00 +16°C° 0 mm 3 m/S 736 mmHg 96%
05:00 +16°C° 0 mm 3 m/S 736 mmHg 96%
06:00 +16°C° 0 mm 3 m/S 737 mmHg 95%
07:00 +17°C° 0 mm 4 m/S 737 mmHg 95%
08:00 +17°C° 0 mm 4 m/S 737 mmHg 94%
09:00 +17°C° 0 mm 4 m/S 737 mmHg 94%
10:00 +17°C° 0 mm 4 m/S 737 mmHg 93%
11:00 +17°C° 0 mm 4 m/S 738 mmHg 92%
12:00 +18°C° 0.1 mm 4 m/S 738 mmHg 92%
13:00 +18°C° 0.1 mm 4 m/S 738 mmHg 92%
14:00 +18°C° 0.1 mm 4 m/S 738 mmHg 93%
15:00 +18°C° 0 mm 4 m/S 738 mmHg 92%
16:00 +18°C° 0 mm 4 m/S 738 mmHg 91%
17:00 +18°C° 0 mm 4 m/S 738 mmHg 90%
18:00 +18°C° 0 mm 3 m/S 739 mmHg 91%
19:00 +17°C° 0 mm 2 m/S 739 mmHg 93%
20:00 +16°C° 0 mm 1 m/S 739 mmHg 95%
21:00 +16°C° 0 mm 1 m/S 739 mmHg 95%
22:00 +16°C° 0 mm 1 m/S 739 mmHg 95%
23:00 +15°C° 0 mm 1 m/S 739 mmHg 96%
Mehr zeigen

Wir brauchen deine Erlaubnis

Meteoprog und unser Service Anbieter werden persönliche Daten aufbewahren, so wie Cookies, Geräte Bezeichnung oder ähnliche Technologien von deinem Gerät und Prozess, so wie Persönliche Daten Inhalte und Werbungen, genauso wie social Media und den Verkehr zu analysieren.

  • Aufbewahrung und/oder Zugang zu deiner Geräte Informationen.

    Cookies, Geräte Bezeichnung oder andere Informationen, können aufbewahrt oder Zugang zu deinem Gerät erhalten, für den Grund, der oben angegeben wird.

  • Personalisierte Werbung und Inhalte, Messungen, Einblick in das Publikum und Produkt Entwicklung.

    Werbungen und Inhalte können personalisiert werden, basierend auf ein Profil. Mehr Daten können besser personalisierte Werbungen und Inhalte hinzufügen. Werbung und Inhalte können gezeigt und gemessen werden. Einblicke über das Publikum, welche die Werbung gesehen haben und den Inhalt, können abgeleitet werden. So wie Daten können genutzt werden, um es zu verbessern oder die Benutzer Erfahrung zu verbessern das System und die Software.

Wenn du “Ich stimme zu” klickst, erlaubst du uns, die Cookies zu benutzen die Geräte Bezeichnung, den Web oder ähnliche Technologien zu benutzen. Deine Settings, können in deinem Gerät bei deinem Browser geändert werden.

Für den bestimmten Zweck, berechtigten Interessen beruhen darauf, mehr als auf den Inhalt. Du kannst mehr darüber in unseren Privaten und Cookie Politik lesen.